[[{"header":{"parameterUnit":"m.s-1","parameterCategory":1,"la1":30.2992,"la2":30.254,"lo1":-89.0895,"lo2":-89.0443,"dy":0.0025,"dx":0.0025,"nx":19,"ny":19,"refTime":"2026-03-29T21:00:00:Z","depth":0,"parameterNumber":2,"parameterNumberName":"U-component_of_WINDS"},"data":[0,0,0,-7.7096,-7.7102,-7.7372,-7.7373,-7.772,-7.7723,0,0,0,0,0,0,0,0,0,0,0,-7.7018,-7.702,-7.7095,-7.7102,-7.7372,-7.7373,-7.772,-7.7723,0,0,0,0,0,0,0,0,0,0,0,-7.7017,-7.702,-7.7023,-7.7103,-7.7372,-7.7373,-7.7719,-7.7514,0,0,0,0,0,0,0,0,0,0,-7.7251,-7.7182,-7.7019,-7.7023,-7.7105,-7.7371,-7.7373,-7.7504,-7.7527,-7.7599,0,-7.7664,0,-7.77,-7.7747,-7.7748,0,0,0,-7.71,-7.7163,-7.7234,-7.7023,-7.7107,-7.7371,-7.725,-7.7517,-7.7542,-7.7629,-7.7669,-7.7682,-7.7705,-7.7749,-7.7751,-7.8175,-7.8177,0,0,-7.7085,-7.7067,-7.7216,-7.7251,-7.7211,-7.7241,-7.7258,-7.7532,-7.7575,-7.7671,-7.769,-7.7711,-7.7751,-7.7754,-7.8173,-7.8175,0,0,0,-7.7044,-7.7057,-7.7121,-7.7237,-7.7285,-7.7249,-7.7269,-7.7562,-7.7585,-7.7694,-7.7715,-7.7753,-7.7758,-7.8171,-7.8174,-7.8256,0,0,0,-7.7035,-7.7032,-7.7115,-7.7106,-7.728,-7.7427,-7.7292,-7.7566,-7.7598,-7.7713,-7.7753,-7.7761,-7.8169,-7.8172,-7.8249,-7.8297,0,0,0,-7.6999,-7.7028,-7.7068,-7.7105,-7.7221,-7.7423,-7.7462,-7.7573,-7.7611,-7.7748,-7.7762,-7.8167,-7.8172,-7.8243,-7.8286,-7.8401,0,0,0,-7.6956,-7.7138,-7.7069,-7.7282,-7.7218,-7.7474,-7.746,-7.7652,-7.778,-7.7755,-7.8169,-7.8174,-7.8241,-7.828,-7.8394,-7.849,-7.853,0,0,-7.7175,-7.7164,-7.729,-7.7237,-7.75,-7.7435,-7.7711,-7.7844,-7.7874,-7.8073,-7.8083,-7.8252,-7.8286,-7.8399,-7.8768,-7.8799,0,0,0,-7.7353,-7.7443,-7.7518,-7.7639,-7.7748,-7.7844,-7.7938,-7.7989,-7.8158,-7.7973,-7.8327,-7.8348,-7.8415,-7.8462,-7.8488,-7.8546,-7.8196,-7.8195,-7.8195,-7.7634,-7.7664,-7.7874,-7.7937,-7.8056,-7.8153,-7.8251,-7.8335,-7.833,-7.8413,-7.847,-7.869,-7.8744,-7.8764,-7.8824,-7.8528,-7.8528,-7.8528,-7.8529,-7.7954,-7.8084,-7.8077,-7.8277,-7.8307,-7.8476,-7.8578,-7.8569,-7.8729,-7.8649,-7.871,-7.8616,-7.8798,-7.8851,-7.8535,-7.8534,-7.8533,-7.8533,-7.8532,-7.8136,-7.8204,-7.8264,-7.8444,-7.8579,-7.8638,-7.8793,-7.8816,-7.8839,-7.89,-7.8961,-7.896,-7.8957,-7.8929,-7.893,-7.893,-7.8931,-7.8932,-7.8932,-7.8299,-7.8365,-7.8492,-7.8625,-7.8707,-7.8817,-7.8919,-7.9,-7.9095,-7.91,-7.91,-7.9084,-7.8813,-7.874,-7.8944,-7.8942,-7.894,-7.8939,-7.8938,-7.8603,-7.8539,-7.8736,-7.8818,-7.8976,-7.9108,-7.9139,-7.9302,-7.9372,-7.9447,-7.9422,-7.9219,-7.9207,-7.9186,-7.9126,-7.9417,-7.9417,-7.9417,-7.9417,-7.8753,-7.8752,-7.8958,-7.9088,-7.9218,-7.9266,-7.9487,-7.9569,-7.9644,-7.9689,-7.9652,-7.9577,-7.9555,-7.9557,-7.9528,-7.9472,-7.9844,-7.9844,-7.9845,-7.894,-7.8953,-7.9135,-7.9209,-7.9335,-7.9442,-7.965,-7.9798,-7.987,-7.9863,-7.9724,-7.9706,-7.9586,-7.9546,-7.9527,-7.9482,-7.938,0,0]},{"header":{"parameterUnit":"m.s-1","parameterCategory":1,"la1":30.2992,"la2":30.254,"lo1":-89.0895,"lo2":-89.0443,"dy":0.0025,"dx":0.0025,"nx":19,"ny":19,"refTime":"2026-03-29T21:00:00:Z","depth":0,"parameterNumber":3,"parameterNumberName":"V-component_of_WINDS"},"data":[0,0,0,3.0683,3.0683,3.0692,3.0692,3.0707,3.0707,0,0,0,0,0,0,0,0,0,0,0,3.0682,3.0683,3.0682,3.0683,3.0692,3.0692,3.0707,3.0707,0,0,0,0,0,0,0,0,0,0,0,3.0682,3.0683,3.0683,3.0683,3.0692,3.0692,3.0707,3.0698,0,0,0,0,0,0,0,0,0,0,3.0689,3.0691,3.0682,3.0683,3.0683,3.0692,3.0692,3.0698,3.0699,3.0704,0,3.071,0,3.0709,3.0708,3.0708,0,0,0,3.0681,3.0691,3.0691,3.0683,3.0683,3.0692,3.0687,3.0699,3.07,3.0706,3.071,3.0711,3.0709,3.0708,3.0708,3.0749,3.0749,0,0,3.068,3.0685,3.069,3.0692,3.0691,3.0687,3.0687,3.0699,3.0704,3.071,3.0711,3.071,3.0708,3.0709,3.0748,3.0749,0,0,0,3.068,3.0685,3.0685,3.0691,3.0693,3.0687,3.0688,3.0704,3.0703,3.0711,3.071,3.0709,3.0709,3.0748,3.0749,3.0768,0,0,0,3.068,3.0685,3.0685,3.0688,3.0693,3.0698,3.0692,3.0703,3.0704,3.071,3.0709,3.0709,3.0748,3.0748,3.0767,3.0775,0,0,0,3.0681,3.0685,3.0687,3.0688,3.0692,3.0698,3.0698,3.0703,3.0703,3.0708,3.0709,3.0748,3.0748,3.0765,3.0773,3.0787,0,0,0,3.0683,3.0703,3.0688,3.071,3.0692,3.0711,3.0698,3.0712,3.0719,3.0709,3.0748,3.0749,3.0765,3.0772,3.0786,3.0799,3.0805,0,0,3.0711,3.0707,3.0719,3.0706,3.0728,3.0709,3.0734,3.0735,3.0731,3.0743,3.0744,3.0767,3.0773,3.0787,3.084,3.0845,0,0,0,3.073,3.0739,3.0744,3.0751,3.0754,3.0757,3.0754,3.0755,3.0765,3.0738,3.0776,3.078,3.0787,3.0793,3.0797,3.0804,3.0752,3.0752,3.0752,3.0774,3.077,3.079,3.0787,3.0794,3.0793,3.0798,3.0799,3.079,3.0799,3.0802,3.0835,3.0842,3.0845,3.0852,3.081,3.081,3.081,3.081,3.0814,3.0826,3.0817,3.0833,3.0828,3.0841,3.0841,3.0835,3.0846,3.0832,3.0838,3.0822,3.0851,3.0856,3.0811,3.0811,3.0811,3.0811,3.081,3.0841,3.0846,3.0848,3.086,3.087,3.0866,3.0878,3.0873,3.0868,3.0874,3.0877,3.0877,3.0875,3.0877,3.0877,3.0877,3.0877,3.0877,3.0877,3.0868,3.087,3.0882,3.0888,3.0893,3.0899,3.09,3.0904,3.0908,3.0903,3.0903,3.0893,3.0855,3.0845,3.0879,3.0878,3.0878,3.0878,3.0878,3.0908,3.0899,3.0916,3.0922,3.093,3.094,3.0934,3.0945,3.0948,3.0954,3.0944,3.0917,3.0912,3.0908,3.09,3.0946,3.0946,3.0946,3.0946,3.093,3.0928,3.0945,3.0955,3.0963,3.096,3.098,3.0982,3.0981,3.0983,3.0976,3.0965,3.0962,3.0958,3.0953,3.0945,3.1001,3.1002,3.1002,3.0954,3.0952,3.097,3.0971,3.0978,3.0983,3.1002,3.1013,3.101,3.1004,3.0984,3.0981,3.0963,3.0958,3.0949,3.0942,3.0927,0,0]}]]